Weather in Goma

Democratic Republic of the Congo     1°40′09″S   29°12′50″E
temp.,
°C
wind,
m/s
gust,
m/s
humid.,
%
clouds,
%
prec.,
mm/h
press.,
hPa
HPBL,
m
25 february, thu
thu2501:00+15ne228754 0.2 1014105
04:00+15ne128898 0.0 1014112
07:00+18ene128274 0.1 1015297
10:00+21sw227416 0.2 1013532
13:00+22sw336141 0.6 1008607
16:00+22ne116794 0.3 100898
19:00+18ne237969 0.4 101285
22:00+17ne22779 0.0 101398
26 february, fri
fri2601:00+17ne22775 0.1 101397
04:00+16ene228414 0.2 101389
07:00+19nne01788 0.8 1015192
10:00+21nw12710 1.3 1013593
13:00+23ssw335723 2.3 1009882
16:00+22wnw127131 1.1 1008461
19:00+17ne228421 1.7 101279
22:00+16ne228371 0.2 101386
27 february, sat
sat2701:00+16ne228371 0.3 101294
04:00+16ne23856 0.0 1012109
07:00+19nne117435 0.2 1014166
10:00+23sw235744 0.5 1012993
13:00+23wsw135169 0.7 10081114
16:00+22e025380 0.1 1008527
19:00+18ne236685 0.1 101270
22:00+18ne116786 0.1 101485
28 february, sun
sun2801:00+16ne227567 0.1 101286
04:00+16ene1181100 0.1 1013111
07:00+19nw017998 0.8 1015237
10:00+21ssw2370100 1.1 1013651
13:00+23ssw2255100 1.8 1009856
16:00+22wsw236470 0.2 1008307
19:00+18ne228083 0.8 101275
22:00+17ne2375100 0.1 101491
1 march, mon
mon101:00+17ene2270100 0.1 101275
04:00+17ne2270100 0.0 101387
07:00+20ne1161100 0.0 1014194
10:00+23sw225352 0.1 1011809
13:00+23sse235567 0.4 1007717
16:00+23ssw115954 0.0 1007176
19:00+20ne226677 0.1 101176
22:00+19nne1269100 0.5 101394